sat.trackr.live / text

‹ back to catalog

STARLINK-5576

NORAD 55382 · 2023-013BD

PAYLOAD ACTIVE UNKNOWN

§ Identity

Operator
Country
US
Launch date
2023-01-26
Launch site
AFETR
Launch vehicle
Mass (kg)
RCS (m²)

Purposes: comms

External: N2YO · Heavens-Above · Gunter

§ Orbital elements

Epoch: 2026-05-24T16:30:01.743552Z

Period
94.27 min
Inclination
43.0039°
Eccentricity
0.0001751
Mean motion
15.27583760 rev/d
Perigee alt
481.8 km
Apogee alt
484.2 km
Semi-major
6,861.2 km
B*
-6.5834e-5
RAAN
249.1235°
Arg perigee
269.8155°
Mean anomaly
90.2496°
Rev number
18,312

§ Raw data

STARLINK-55761 55382U 23013BD  26144.68752018 -.00002074  00000+0 -65834-4 0  99902 55382  43.0039 249.1235 0001751 269.8155  90.2496 15.27583760183129

JSON: /api/v1/satellites/55382 · /tle

For live sub-satellite position, see the globe view (requires WebGL).

§ Visibility from observer

Set your observer location to see the next 7 days of passes ≥ 10°. The values pass through the URL so the page stays shareable.

No JS? Fill the form by hand. The geolocation button needs JavaScript.